Location: Beadle
(51.4667°N, 109.0000°W)
Time: 05:30:40
(UTC+00:00)

Altair - Pass Details

Date: 06 June 2022
Orbit: 1501 x 1682 km, 47.2° (Epoch: 30 June)

Event Time Altitude Azimuth Distance (km) Brightness Sun altitude
Rises 22:09:17 0° 248° (WSW) 4,784 10.8 45.9°
Reaches altitude 10° 22:12:21 10° 246° (WSW) 3,824 10.6 45.5°
Maximum altitude 22:22:00 66° 167° (SSE) 1,775 8.6 44.1°
Drops below altitude 10° 22:31:58 10° 89° (E) 3,939 9.3 42.6°
Sets 22:35:11 0° 87° (E) 4,935 9.7 42.1°
